Regional Weather Roundup
Issued by NWS

Home | Current Version | Previous Version | Graphics & Text | Print | Product List | Glossary On
Versions: 1 2 3 4 5 6 7 8 9 10 11 12 13 14 15 16 17 18 19 20 21 22 23 24 25 26 27 28 29 30 31 32 33 34 35 36 37 38 39 40 41 42 43 44 45 46 47 48 49 50
000
ASUS43 KLSX 280907
RWRMO

WEATHER SUMMARY FOR MISSOURI
NATIONAL WEATHER SERVICE SPRINGFIELD MO
400 AM CDT WED SEP 28 2016

NOTE: "FAIR" INDICATES FEW OR NO CLOUDS BELOW 12,000 FEET WITH NO
       SIGNIFICANT WEATHER AND/OR OBSTRUCTIONS TO VISIBILITY.
       CURRENT SKY AND/OR WEATHER CONDITIONS ARE NOT AVAILABLE FOR
       CHILLICOTHE AND FARMINGTON.

MOZ001>031-035>038-043-044-053-054-281000-
...NORTHERN AND WESTERN MISSOURI...

CITY           SKY/WX    TMP DP  RH WIND       PRES   REMARKS
KANSAS CTY INT CLEAR     59  53  80 NW7       29.87S
KANSAS C DTWN  CLEAR     63  55  75 CALM      29.86S
LEE`S SUMMIT   CLEAR     60  55  83 W7        29.86F
ST JOSEPH      CLEAR     53  52  96 N7        29.88R
CHILLICOTHE      N/A     59  49  69 N5        29.86S
KIRKSVILLE     CLOUDY    57  46  66 N10       29.85R

$$
MOZ066>068-077>081-088>096-101>105-281000-
...SOUTHWEST MISSOURI...

CITY           SKY/WX    TMP DP  RH WIND       PRES   REMARKS
SPRINGFIELD    CLEAR     62  48  60 SW9       29.90F
JOPLIN         CLEAR     64  50  60 SW12      29.91F
BRANSON        CLEAR     63  45  51 SW6       29.94F

$$
MOZ032>034-039>042-045>050-055>058-069>072-281000-
...CENTRAL MISSOURI...

CITY           SKY/WX    TMP DP  RH WIND       PRES   REMARKS
COLUMBIA       CLOUDY    61  55  81 W8        29.82F
JEFFERSON CITY MOCLDY    60  54  80 CALM      29.83S
ROLLA          CLEAR     56  50  80 SW9       29.84F
SEDALIA        CLEAR     62  54  74 SW7       29.85F
WHITEMAN AFB   CLEAR     59  57  93 SW5       29.84S
OSAGE BEACH    CLEAR     62  52  69 SW5       29.86F

$$
MOZ051-052-059>065-281000-
...EAST CENTRAL MISSOURI...

CITY           SKY/WX    TMP DP  RH WIND       PRES   REMARKS
ST LOUIS INTL  PTCLDY    64  53  67 W7        29.79F
SPIRIT OF STL  CLEAR     61  54  77 W8        29.79S
ST CHARLES     CLEAR     55  53  93 CALM      29.79S

$$
MOZ072>076-082>087-097>100-106>115-281000-
...SOUTH CENTRAL AND SOUTHEAST MISSOURI...

CITY           SKY/WX    TMP DP  RH WIND       PRES   REMARKS
CAPE GIRARDEAU CLEAR     59  51  75 SW6       29.85F
FARMINGTON     CLEAR     65  49  56 W8        29.84F
POPLAR BLUFF   CLEAR     55  53  93 SW5       29.88F
WEST PLAINS    CLEAR     56  49  77 SW6       29.93F

$$



USA.gov is the U.S. government's official web portal to all federal, state and local government web resources and services.